METEOSAT-10 (MSG-3)

Last updated on July 14, 2020, 5:23 a.m. UTC

1 38552U 12035B   20195.82963487  .00000069  00000-0  00000-0 0  9993
2 38552   1.0060  17.7190 0000434  54.4737 168.1618  1.00280637 29186
UTC
Height (km)
Latitude
Longitude
Inclination
Orbital Period
UTC large
Height (km)
Speed (km/s)
/
Latitude / Longitude
Inclination (degrees)
Orbital Period (minutes)
Azimuth
Elevation
Range (km)
Doppler Factor
iOS Compass Heading
iOS Angle

Next 30 passes for location: Hong Kong

Rise time Rise Azimuth (degrees) Set time Set Azimuth (degrees) Duration Max altitude (degrees)

No matching passes for this satellites